Saint Bonnet de Bellac- Haute Vienne - France
Donnes mto: dimanche, 15/04/2012
Date Horaire Temp. E. Hum. E. P.atmo. Pluie Vent Direction Direction Ensoleilleme Solaire P. de rose Temp au vent Rafales
15/04/2012 00:00 6,3 C 79 % 1004,1 hPa 0,0 mm 0,0 km/h (0 Bft) N-NE 22 0 min 0 W/m 2,9 C 6,3 C 0,0 km/h (0 Bft)
15/04/2012 00:10 6,1 C 80 % 1004,2 hPa 0,0 mm 0,4 km/h (0 Bft) N 360 0 min 0 W/m 2,9 C 6,1 C 3,6 km/h (1 Bft)
15/04/2012 00:20 5,8 C 81 % 1004,2 hPa 0,0 mm 0,4 km/h (0 Bft) NO 315 0 min 0 W/m 2,8 C 5,8 C 3,6 km/h (1 Bft)
15/04/2012 00:30 5,8 C 81 % 1004,2 hPa 0,0 mm 0,0 km/h (0 Bft) NO 315 0 min 0 W/m 2,8 C 5,8 C 0,0 km/h (0 Bft)
15/04/2012 00:40 5,8 C 82 % 1004,1 hPa 0,0 mm 0,7 km/h (0 Bft) N 360 0 min 0 W/m 3,0 C 5,8 C 0,7 km/h (0 Bft)
15/04/2012 00:50 5,9 C 82 % 1004,1 hPa 0,0 mm 1,4 km/h (1 Bft) N-NE 22 0 min 0 W/m 3,1 C 5,9 C 4,0 km/h (1 Bft)
15/04/2012 01:00 5,9 C 82 % 1004,0 hPa 0,0 mm 0,0 km/h (0 Bft) N 360 0 min 0 W/m 3,1 C 5,9 C 0,0 km/h (0 Bft)
15/04/2012 01:10 5,9 C 82 % 1004,1 hPa 0,0 mm 0,0 km/h (0 Bft) N-NE 22 0 min 0 W/m 3,1 C 5,9 C 0,0 km/h (0 Bft)
15/04/2012 01:20 5,8 C 83 % 1004,1 hPa 0,0 mm 1,1 km/h (1 Bft) N-NE 22 0 min 0 W/m 3,1 C 5,8 C 4,3 km/h (1 Bft)
15/04/2012 01:30 5,8 C 83 % 1004,1 hPa 0,0 mm 2,2 km/h (1 Bft) N-NO 337 0 min 0 W/m 3,1 C 5,8 C 6,1 km/h (2 Bft)
15/04/2012 01:40 5,8 C 83 % 1004,1 hPa 0,0 mm 0,0 km/h (0 Bft) N-NO 337 0 min 0 W/m 3,1 C 5,8 C 0,0 km/h (0 Bft)
15/04/2012 01:50 5,8 C 83 % 1004,2 hPa 0,0 mm 0,0 km/h (0 Bft) N-NO 337 0 min 0 W/m 3,1 C 5,8 C 3,2 km/h (1 Bft)
15/04/2012 02:00 5,9 C 83 % 1004,1 hPa 0,0 mm 2,9 km/h (1 Bft) NO 315 0 min 0 W/m 3,2 C 5,9 C 2,9 km/h (1 Bft)
15/04/2012 02:10 5,9 C 84 % 1004,1 hPa 0,0 mm 1,1 km/h (1 Bft) N-NO 337 0 min 0 W/m 3,4 C 5,9 C 4,3 km/h (1 Bft)
15/04/2012 02:20 5,9 C 84 % 1004,0 hPa 0,0 mm 0,0 km/h (0 Bft) NE 45 0 min 0 W/m 3,4 C 5,9 C 0,0 km/h (0 Bft)
15/04/2012 02:30 5,9 C 84 % 1004,0 hPa 0,0 mm 0,7 km/h (0 Bft) N 360 0 min 0 W/m 3,4 C 5,9 C 4,0 km/h (1 Bft)
15/04/2012 02:40 5,9 C 85 % 1004,0 hPa 0,0 mm 1,1 km/h (1 Bft) N 360 0 min 0 W/m 3,6 C 5,9 C 4,3 km/h (1 Bft)
15/04/2012 02:50 5,9 C 85 % 1004,0 hPa 0,0 mm 1,4 km/h (1 Bft) N-NE 22 0 min 0 W/m 3,6 C 5,9 C 6,1 km/h (2 Bft)
15/04/2012 03:02 5,9 C 85 % 1004,0 hPa 0,0 mm 0,0 km/h (0 Bft) NE 45 0 min 0 W/m 3,6 C 5,9 C 3,2 km/h (1 Bft)
15/04/2012 03:10 6,0 C 85 % 1004,0 hPa 0,0 mm 2,2 km/h (1 Bft) N-NE 22 0 min 0 W/m 3,7 C 6,0 C 4,3 km/h (1 Bft)
15/04/2012 03:20 6,0 C 86 % 1004,0 hPa 0,0 mm 0,0 km/h (0 Bft) NE 45 0 min 0 W/m 3,8 C 6,0 C 0,0 km/h (0 Bft)
15/04/2012 03:30 6,0 C 86 % 1004,1 hPa 0,0 mm 0,0 km/h (0 Bft) N 360 0 min 0 W/m 3,8 C 6,0 C 0,0 km/h (0 Bft)
15/04/2012 03:40 6,0 C 86 % 1004,1 hPa 0,0 mm 0,0 km/h (0 Bft) N-NE 22 0 min 0 W/m 3,8 C 6,0 C 0,0 km/h (0 Bft)
15/04/2012 03:50 6,0 C 86 % 1004,2 hPa 0,0 mm 0,0 km/h (0 Bft) NE 45 0 min 0 W/m 3,8 C 6,0 C 0,0 km/h (0 Bft)
15/04/2012 04:00 6,0 C 86 % 1004,3 hPa 0,0 mm 0,0 km/h (0 Bft) N 360 0 min 0 W/m 3,8 C 6,0 C 0,0 km/h (0 Bft)
15/04/2012 04:10 6,0 C 86 % 1004,3 hPa 0,0 mm 4,0 km/h (1 Bft) N-NE 22 0 min 0 W/m 3,8 C 6,0 C 6,5 km/h (2 Bft)
15/04/2012 04:20 6,1 C 86 % 1004,4 hPa 0,0 mm 1,4 km/h (1 Bft) N-NE 22 0 min 0 W/m 3,9 C 6,1 C 3,6 km/h (1 Bft)
15/04/2012 04:30 6,1 C 86 % 1004,6 hPa 0,0 mm 0,7 km/h (0 Bft) N 360 0 min 0 W/m 3,9 C 6,1 C 6,5 km/h (2 Bft)
15/04/2012 04:40 6,2 C 86 % 1004,6 hPa 0,0 mm 0,4 km/h (0 Bft) N 360 0 min 0 W/m 4,0 C 6,2 C 0,4 km/h (0 Bft)
15/04/2012 04:50 6,2 C 87 % 1004,7 hPa 0,0 mm 1,1 km/h (1 Bft) NE 45 0 min 0 W/m 4,2 C 6,2 C 1,1 km/h (1 Bft)
15/04/2012 05:00 6,2 C 87 % 1004,8 hPa 0,0 mm 0,7 km/h (0 Bft) NO 315 0 min 0 W/m 4,2 C 6,2 C 2,9 km/h (1 Bft)
15/04/2012 05:10 6,3 C 87 % 1004,8 hPa 0,0 mm 0,0 km/h (0 Bft) N-NE 22 0 min 0 W/m 4,3 C 6,3 C 3,2 km/h (1 Bft)
15/04/2012 05:20 6,3 C 87 % 1004,8 hPa 0,0 mm 4,7 km/h (1 Bft) N 360 0 min 0 W/m 4,3 C 5,7 C 10,8 km/h (2 Bft)
15/04/2012 05:30 6,3 C 87 % 1004,9 hPa 0,0 mm 1,1 km/h (1 Bft) E-NE 67 0 min 0 W/m 4,3 C 6,3 C 3,2 km/h (1 Bft)
15/04/2012 05:40 6,3 C 87 % 1004,9 hPa 0,0 mm 3,2 km/h (1 Bft) N-NE 22 0 min 0 W/m 4,3 C 6,3 C 6,5 km/h (2 Bft)
15/04/2012 05:50 6,2 C 88 % 1004,9 hPa 0,0 mm 1,8 km/h (1 Bft) N-NE 22 0 min 0 W/m 4,4 C 6,2 C 3,6 km/h (1 Bft)
15/04/2012 06:00 6,2 C 88 % 1005,0 hPa 0,0 mm 0,7 km/h (0 Bft) N 360 0 min 0 W/m 4,4 C 6,2 C 3,6 km/h (1 Bft)
15/04/2012 06:10 6,2 C 88 % 1005,0 hPa 0,0 mm 1,8 km/h (1 Bft) NE 45 0 min 0 W/m 4,4 C 6,2 C 4,0 km/h (1 Bft)
15/04/2012 06:20 6,2 C 88 % 1005,2 hPa 0,0 mm 4,7 km/h (1 Bft) N-NO 337 0 min 0 W/m 4,4 C 5,6 C 12,6 km/h (3 Bft)
15/04/2012 06:30 6,2 C 88 % 1005,2 hPa 0,0 mm 5,4 km/h (2 Bft) N 360 0 min 0 W/m 4,4 C 5,3 C 5,4 km/h (2 Bft)
15/04/2012 06:40 6,2 C 88 % 1005,4 hPa 0,0 mm 3,6 km/h (1 Bft) N-NE 22 0 min 0 W/m 4,4 C 6,2 C 12,2 km/h (2 Bft)
15/04/2012 06:50 6,1 C 88 % 1005,5 hPa 0,0 mm 7,2 km/h (2 Bft) N 360 0 min 0 W/m 4,3 C 4,6 C 10,4 km/h (2 Bft)
15/04/2012 07:00 6,1 C 88 % 1005,6 hPa 0,1 mm 4,3 km/h (1 Bft) N-NE 22 0 min 0 W/m 4,3 C 6,1 C 4,3 km/h (1 Bft)
15/04/2012 07:10 6,1 C 88 % 1005,8 hPa 0,0 mm 2,2 km/h (1 Bft) NE 45 0 min 0 W/m 4,3 C 6,1 C 6,1 km/h (2 Bft)
15/04/2012 07:20 6,0 C 88 % 1005,9 hPa 0,0 mm 7,2 km/h (2 Bft) E-NE 67 2 min 0 W/m 4,2 C 4,5 C 12,6 km/h (3 Bft)
15/04/2012 07:30 5,9 C 88 % 1006,0 hPa 0,0 mm 4,3 km/h (1 Bft) N-NE 22 2 min 0 W/m 4,1 C 5,9 C 8,3 km/h (2 Bft)
15/04/2012 07:40 5,9 C 88 % 1006,2 hPa 0,0 mm 5,0 km/h (1 Bft) N-NE 22 2 min 0 W/m 4,1 C 5,1 C 8,3 km/h (2 Bft)
15/04/2012 07:50 5,9 C 88 % 1006,3 hPa 0,0 mm 6,5 km/h (2 Bft) N-NE 22 2 min 0 W/m 4,1 C 4,6 C 15,1 km/h (3 Bft)
15/04/2012 08:00 5,8 C 88 % 1006,5 hPa 0,0 mm 8,6 km/h (2 Bft) N 360 2 min 0 W/m 4,0 C 3,9 C 8,6 km/h (2 Bft)
15/04/2012 08:10 5,8 C 87 % 1006,4 hPa 0,0 mm 9,4 km/h (2 Bft) N-NE 22 2 min 0 W/m 3,8 C 3,7 C 17,3 km/h (3 Bft)
15/04/2012 08:20 5,8 C 86 % 1006,6 hPa 0,0 mm 7,9 km/h (2 Bft) E-NE 67 2 min 0 W/m 3,6 C 4,1 C 11,2 km/h (2 Bft)
15/04/2012 08:30 5,7 C 86 % 1006,7 hPa 0,0 mm 13,0 km/h (3 Bft) N 360 2 min 0 W/m 3,5 C 2,9 C 17,3 km/h (3 Bft)
15/04/2012 08:40 5,6 C 86 % 1006,8 hPa 0,0 mm 9,4 km/h (2 Bft) N-NE 22 2 min 0 W/m 3,4 C 3,5 C 13,7 km/h (3 Bft)
15/04/2012 08:50 5,6 C 85 % 1006,9 hPa 0,0 mm 4,3 km/h (1 Bft) NE 45 2 min 0 W/m 3,3 C 5,6 C 8,6 km/h (2 Bft)
15/04/2012 09:00 5,6 C 85 % 1007,1 hPa 0,0 mm 2,2 km/h (1 Bft) N-NE 22 2 min 0 W/m 3,3 C 5,6 C 3,6 km/h (1 Bft)
15/04/2012 09:10 5,5 C 85 % 1007,2 hPa 0,0 mm 4,7 km/h (1 Bft) NE 45 2 min 0 W/m 3,2 C 4,8 C 8,6 km/h (2 Bft)
15/04/2012 09:20 5,4 C 85 % 1007,3 hPa 0,0 mm 5,8 km/h (2 Bft) N 360 2 min 0 W/m 3,1 C 4,2 C 9,4 km/h (2 Bft)
15/04/2012 09:30 5,4 C 85 % 1007,4 hPa 0,0 mm 6,1 km/h (2 Bft) N-NE 22 2 min 0 W/m 3,1 C 4,2 C 8,3 km/h (2 Bft)
15/04/2012 09:40 5,4 C 85 % 1007,5 hPa 0,0 mm 13,0 km/h (3 Bft) N-NE 22 2 min 0 W/m 3,1 C 2,6 C 15,1 km/h (3 Bft)
15/04/2012 09:50 5,4 C 85 % 1007,6 hPa 0,0 mm 10,1 km/h (2 Bft) N 360 2 min 0 W/m 3,1 C 3,1 C 23,4 km/h (4 Bft)
15/04/2012 10:00 5,4 C 85 % 1007,7 hPa 0,0 mm 12,6 km/h (3 Bft) NE 45 2 min 0 W/m 3,1 C 2,6 C 16,9 km/h (3 Bft)
15/04/2012 10:10 5,4 C 85 % 1007,8 hPa 0,0 mm 11,9 km/h (2 Bft) N-NE 22 2 min 0 W/m 3,1 C 2,8 C 15,8 km/h (3 Bft)
15/04/2012 10:20 5,4 C 85 % 1007,9 hPa 0,0 mm 9,0 km/h (2 Bft) N-NE 22 2 min 0 W/m 3,1 C 3,4 C 10,1 km/h (2 Bft)
15/04/2012 10:30 5,4 C 85 % 1008,1 hPa 0,0 mm 9,0 km/h (2 Bft) NE 45 2 min 0 W/m 3,1 C 3,4 C 11,9 km/h (2 Bft)
15/04/2012 10:40 5,6 C 85 % 1008,1 hPa 0,0 mm 6,5 km/h (2 Bft) E-NE 67 2 min 0 W/m 3,3 C 4,3 C 9,7 km/h (2 Bft)
15/04/2012 10:50 5,8 C 85 % 1008,3 hPa 0,0 mm 4,7 km/h (1 Bft) NE 45 2 min 0 W/m 3,5 C 5,1 C 13,7 km/h (3 Bft)
15/04/2012 11:00 6,1 C 84 % 1008,5 hPa 0,0 mm 11,2 km/h (2 Bft) N-NO 337 2 min 0 W/m 3,6 C 3,7 C 15,5 km/h (3 Bft)
15/04/2012 11:10 6,4 C 84 % 1008,6 hPa 0,0 mm 11,2 km/h (2 Bft) NE 45 2 min 0 W/m 3,9 C 4,1 C 16,9 km/h (3 Bft)
15/04/2012 11:20 6,8 C 82 % 1008,7 hPa 0,0 mm 7,9 km/h (2 Bft) NE 45 2 min 0 W/m 3,9 C 5,3 C 12,6 km/h (3 Bft)
15/04/2012 11:30 7,2 C 82 % 1008,8 hPa 0,0 mm 10,8 km/h (2 Bft) N-NE 22 2 min 0 W/m 4,3 C 5,1 C 19,8 km/h (3 Bft)
15/04/2012 11:40 7,7 C 80 % 1008,7 hPa 0,0 mm 6,8 km/h (2 Bft) N 360 2 min 0 W/m 4,5 C 6,6 C 6,8 km/h (2 Bft)
15/04/2012 11:50 8,2 C 79 % 1008,7 hPa 0,0 mm 13,7 km/h (3 Bft) N-NE 22 2 min 0 W/m 4,8 C 5,9 C 20,5 km/h (4 Bft)
15/04/2012 12:00 8,4 C 76 % 1008,9 hPa 0,0 mm 11,2 km/h (2 Bft) NO 315 2 min 0 W/m 4,4 C 6,5 C 13,7 km/h (3 Bft)
15/04/2012 12:10 8,8 C 75 % 1008,9 hPa 0,0 mm 15,5 km/h (3 Bft) E-NE 67 2 min 0 W/m 4,6 C 6,4 C 23,8 km/h (4 Bft)
15/04/2012 12:20 8,6 C 74 % 1009,1 hPa 0,0 mm 17,3 km/h (3 Bft) NE 45 2 min 0 W/m 4,2 C 5,9 C 17,3 km/h (3 Bft)
15/04/2012 12:30 8,8 C 73 % 1009,0 hPa 0,0 mm 10,8 km/h (2 Bft) E-NE 67 2 min 0 W/m 4,2 C 7,1 C 10,8 km/h (2 Bft)
15/04/2012 12:40 8,9 C 73 % 1009,2 hPa 0,0 mm 16,2 km/h (3 Bft) N 360 2 min 0 W/m 4,3 C 6,4 C 24,8 km/h (4 Bft)
15/04/2012 12:50 9,1 C 72 % 1009,2 hPa 0,0 mm 9,4 km/h (2 Bft) E-NE 67 2 min 0 W/m 4,3 C 7,7 C 15,1 km/h (3 Bft)
15/04/2012 13:00 9,2 C 71 % 1009,1 hPa 0,0 mm 15,1 km/h (3 Bft) N-NE 22 2 min 0 W/m 4,2 C 6,9 C 24,5 km/h (4 Bft)
15/04/2012 13:10 9,4 C 71 % 1009,1 hPa 0,0 mm 19,8 km/h (3 Bft) N-NO 337 2 min 0 W/m 4,4 C 6,6 C 32,0 km/h (5 Bft)
15/04/2012 13:20 9,7 C 72 % 1009,3 hPa 0,0 mm 8,3 km/h (2 Bft) N 360 2 min 0 W/m 4,9 C 8,6 C 8,3 km/h (2 Bft)
15/04/2012 13:30 9,9 C 69 % 1009,2 hPa 0,0 mm 1,8 km/h (1 Bft) N-NO 337 2 min 0 W/m 4,5 C 9,9 C 7,9 km/h (2 Bft)
15/04/2012 13:40 10,3 C 68 % 1009,3 hPa 0,0 mm 18,4 km/h (3 Bft) N-NE 22 2 min 0 W/m 4,7 C 10,3 C 28,8 km/h (5 Bft)
15/04/2012 13:50 10,5 C 67 % 1009,4 hPa 0,0 mm 14,8 km/h (3 Bft) NE 45 2 min 0 W/m 4,6 C 10,5 C 28,1 km/h (5 Bft)
15/04/2012 14:00 10,8 C 65 % 1009,4 hPa 0,0 mm 17,3 km/h (3 Bft) N 360 2 min 0 W/m 4,5 C 10,8 C 17,3 km/h (3 Bft)
15/04/2012 14:10 10,8 C 63 % 1009,6 hPa 0,0 mm 18,4 km/h (3 Bft) N-NE 22 2 min 0 W/m 4,0 C 10,8 C 28,8 km/h (5 Bft)
15/04/2012 14:20 10,6 C 64 % 1009,8 hPa 0,0 mm 11,5 km/h (2 Bft) NO 315 2 min 0 W/m 4,1 C 10,6 C 19,4 km/h (3 Bft)
15/04/2012 14:30 10,4 C 63 % 1009,9 hPa 0,0 mm 11,5 km/h (2 Bft) N-NE 22 2 min 0 W/m 3,7 C 10,4 C 16,2 km/h (3 Bft)
15/04/2012 14:40 10,3 C 62 % 1009,9 hPa 0,0 mm 17,3 km/h (3 Bft) N 360 2 min 0 W/m 3,3 C 10,3 C 20,9 km/h (4 Bft)
15/04/2012 14:50 10,3 C 63 % 1010,0 hPa 0,0 mm 11,5 km/h (2 Bft) N-NO 337 2 min 0 W/m 3,6 C 10,3 C 14,4 km/h (3 Bft)
15/04/2012 15:00 10,3 C 62 % 1010,0 hPa 0,0 mm 15,1 km/h (3 Bft) O 270 2 min 0 W/m 3,3 C 10,3 C 22,7 km/h (4 Bft)
15/04/2012 15:10 10,1 C 62 % 1010,2 hPa 0,0 mm 7,9 km/h (2 Bft) N-NE 22 2 min 0 W/m 3,2 C 10,1 C 15,1 km/h (3 Bft)
15/04/2012 15:20 9,9 C 61 % 1010,1 hPa 0,0 mm 18,7 km/h (3 Bft) NE 45 2 min 0 W/m 2,7 C 7,4 C 25,6 km/h (4 Bft)
15/04/2012 15:30 9,9 C 62 % 1010,1 hPa 0,0 mm 15,5 km/h (3 Bft) N 360 2 min 0 W/m 3,0 C 7,7 C 34,2 km/h (5 Bft)
15/04/2012 15:40 10,3 C 61 % 1010,2 hPa 0,0 mm 17,6 km/h (3 Bft) N-NE 22 2 min 0 W/m 3,1 C 10,3 C 22,3 km/h (4 Bft)
15/04/2012 15:50 10,4 C 60 % 1010,2 hPa 0,0 mm 6,8 km/h (2 Bft) N-NE 22 2 min 0 W/m 3,0 C 10,4 C 8,6 km/h (2 Bft)
15/04/2012 16:00 10,5 C 58 % 1010,3 hPa 0,0 mm 13,7 km/h (3 Bft) E-NE 67 2 min 0 W/m 2,6 C 10,5 C 22,7 km/h (4 Bft)
15/04/2012 16:10 10,4 C 58 % 1010,3 hPa 0,0 mm 11,2 km/h (2 Bft) N-NE 22 2 min 0 W/m 2,5 C 10,4 C 20,2 km/h (4 Bft)
15/04/2012 16:20 10,2 C 59 % 1010,4 hPa 0,0 mm 10,1 km/h (2 Bft) N-NE 22 2 min 0 W/m 2,6 C 10,2 C 19,4 km/h (3 Bft)
15/04/2012 16:30 10,2 C 59 % 1010,4 hPa 0,0 mm 9,7 km/h (2 Bft) N-NE 22 2 min 0 W/m 2,6 C 10,2 C 9,7 km/h (2 Bft)
15/04/2012 16:40 10,1 C 59 % 1010,4 hPa 0,0 mm 15,1 km/h (3 Bft) NE 45 2 min 0 W/m 2,5 C 10,1 C 29,5 km/h (5 Bft)
15/04/2012 16:50 9,9 C 60 % 1010,5 hPa 0,0 mm 11,5 km/h (2 Bft) N-NO 337 2 min 0 W/m 2,5 C 8,3 C 11,5 km/h (2 Bft)
15/04/2012 17:00 9,8 C 58 % 1010,8 hPa 0,0 mm 14,4 km/h (3 Bft) N 360 2 min 0 W/m 1,9 C 7,7 C 22,0 km/h (4 Bft)
15/04/2012 17:10 9,8 C 58 % 1011,0 hPa 0,0 mm 10,8 km/h (2 Bft) N-NE 22 2 min 0 W/m 1,9 C 8,3 C 10,8 km/h (2 Bft)
15/04/2012 17:20 9,7 C 58 % 1010,9 hPa 0,0 mm 19,1 km/h (3 Bft) N-NE 22 2 min 0 W/m 1,8 C 7,1 C 27,4 km/h (5 Bft)
15/04/2012 17:30 9,6 C 58 % 1011,1 hPa 0,0 mm 19,8 km/h (3 Bft) E-NE 67 2 min 0 W/m 1,8 C 6,9 C 20,2 km/h (4 Bft)
15/04/2012 17:40 9,4 C 59 % 1011,3 hPa 0,0 mm 6,8 km/h (2 Bft) NE 45 2 min 0 W/m 1,8 C 8,6 C 14,0 km/h (3 Bft)
15/04/2012 17:50 9,4 C 59 % 1011,5 hPa 0,0 mm 9,0 km/h (2 Bft) NE 45 2 min 0 W/m 1,8 C 8,1 C 9,0 km/h (2 Bft)
15/04/2012 18:00 9,3 C 59 % 1011,6 hPa 0,0 mm 8,3 km/h (2 Bft) N-NE 22 2 min 0 W/m 1,7 C 8,1 C 26,3 km/h (4 Bft)
15/04/2012 18:10 9,3 C 59 % 1011,7 hPa 0,0 mm 16,9 km/h (3 Bft) N-NE 22 2 min 0 W/m 1,7 C 6,8 C 22,3 km/h (4 Bft)
15/04/2012 18:20 9,3 C 59 % 1011,8 hPa 0,0 mm 5,0 km/h (1 Bft) N-NE 22 2 min 0 W/m 1,7 C 9,0 C 5,0 km/h (1 Bft)
15/04/2012 18:30 9,3 C 59 % 1011,9 hPa 0,0 mm 19,4 km/h (3 Bft) O-NO 292 2 min 0 W/m 1,7 C 6,6 C 28,8 km/h (5 Bft)
15/04/2012 18:40 9,4 C 59 % 1011,9 hPa 0,0 mm 15,1 km/h (3 Bft) N-NE 22 2 min 0 W/m 1,8 C 7,2 C 24,1 km/h (4 Bft)
15/04/2012 18:50 9,6 C 58 % 1011,9 hPa 0,0 mm 17,6 km/h (3 Bft) E-NE 67 2 min 0 W/m 1,8 C 7,1 C 17,6 km/h (3 Bft)
15/04/2012 19:00 9,6 C 56 % 1012,1 hPa 0,0 mm 11,2 km/h (2 Bft) N 360 2 min 0 W/m 1,3 C 8,0 C 16,2 km/h (3 Bft)
15/04/2012 19:10 9,6 C 56 % 1012,3 hPa 0,0 mm 17,6 km/h (3 Bft) N 360 2 min 0 W/m 1,3 C 7,1 C 23,0 km/h (4 Bft)
15/04/2012 19:20 9,3 C 56 % 1012,4 hPa 0,0 mm 19,4 km/h (3 Bft) N 360 2 min 0 W/m 1,0 C 6,6 C 37,8 km/h (5 Bft)
15/04/2012 19:30 8,9 C 58 % 1012,5 hPa 0,0 mm 22,3 km/h (4 Bft) N-NE 22 2 min 0 W/m 1,1 C 5,8 C 28,8 km/h (5 Bft)
15/04/2012 19:40 8,8 C 58 % 1012,7 hPa 0,0 mm 23,0 km/h (4 Bft) N-NO 337 2 min 0 W/m 1,0 C 5,6 C 27,0 km/h (5 Bft)
15/04/2012 19:50 8,7 C 57 % 1013,0 hPa 0,0 mm 19,1 km/h (3 Bft) N 360 2 min 0 W/m 0,7 C 5,8 C 19,1 km/h (3 Bft)
15/04/2012 20:00 8,5 C 57 % 1013,2 hPa 0,0 mm 7,6 km/h (2 Bft) N-NE 22 2 min 0 W/m 0,5 C 7,3 C 7,9 km/h (2 Bft)
15/04/2012 20:10 8,4 C 57 % 1013,3 hPa 0,0 mm 13,3 km/h (3 Bft) N-NO 337 2 min 0 W/m 0,4 C 6,2 C 18,4 km/h (3 Bft)
15/04/2012 20:20 8,4 C 57 % 1013,6 hPa 0,0 mm 15,1 km/h (3 Bft) N 360 2 min 0 W/m 0,4 C 5,9 C 26,6 km/h (4 Bft)
15/04/2012 20:30 8,3 C 57 % 1013,6 hPa 0,0 mm 18,0 km/h (3 Bft) NE 45 2 min 0 W/m 0,3 C 5,4 C 30,6 km/h (5 Bft)
15/04/2012 20:40 8,2 C 57 % 1013,8 hPa 0,0 mm 10,8 km/h (2 Bft) N 360 0 min 0 W/m 0,2 C 6,3 C 16,6 km/h (3 Bft)
15/04/2012 20:50 8,0 C 57 % 1014,0 hPa 0,0 mm 5,8 km/h (2 Bft) NE 45 0 min 0 W/m 0,0 C 7,2 C 6,5 km/h (2 Bft)
15/04/2012 21:00 7,9 C 57 % 1014,2 hPa 0,0 mm 14,0 km/h (3 Bft) NE 45 0 min 0 W/m -0,1 C 5,5 C 17,6 km/h (3 Bft)
15/04/2012 21:10 7,8 C 57 % 1014,3 hPa 0,0 mm 14,4 km/h (3 Bft) N 360 0 min 0 W/m -0,2 C 5,3 C 22,3 km/h (4 Bft)
15/04/2012 21:20 7,7 C 58 % 1014,4 hPa 0,0 mm 11,5 km/h (2 Bft) NE 45 0 min 0 W/m -0,0 C 5,6 C 15,1 km/h (3 Bft)
15/04/2012 21:30 7,6 C 59 % 1014,7 hPa 0,0 mm 18,7 km/h (3 Bft) NO 315 0 min 0 W/m 0,1 C 4,5 C 27,0 km/h (5 Bft)
15/04/2012 21:40 7,4 C 60 % 1014,8 hPa 0,0 mm 10,1 km/h (2 Bft) E-SE 112 0 min 0 W/m 0,2 C 5,5 C 16,9 km/h (3 Bft)
15/04/2012 21:50 7,3 C 60 % 1014,9 hPa 0,0 mm 12,2 km/h (2 Bft) N 360 0 min 0 W/m 0,1 C 5,0 C 14,8 km/h (3 Bft)
15/04/2012 22:00 7,2 C 60 % 1015,0 hPa 0,0 mm 6,1 km/h (2 Bft) N 360 0 min 0 W/m -0,0 C 6,2 C 9,0 km/h (2 Bft)
15/04/2012 22:10 7,0 C 60 % 1015,1 hPa 0,0 mm 13,7 km/h (3 Bft) N-NO 337 0 min 0 W/m -0,2 C 4,4 C 27,4 km/h (5 Bft)
15/04/2012 22:20 6,9 C 60 % 1015,4 hPa 0,0 mm 10,1 km/h (2 Bft) NE 45 0 min 0 W/m -0,3 C 4,9 C 15,5 km/h (3 Bft)
15/04/2012 22:30 6,8 C 60 % 1015,5 hPa 0,0 mm 8,3 km/h (2 Bft) N-NO 337 0 min 0 W/m -0,4 C 5,2 C 13,0 km/h (3 Bft)
15/04/2012 22:40 6,8 C 60 % 1015,7 hPa 0,0 mm 7,6 km/h (2 Bft) N 360 0 min 0 W/m -0,4 C 5,3 C 12,6 km/h (3 Bft)
15/04/2012 22:50 6,8 C 60 % 1015,8 hPa 0,0 mm 15,8 km/h (3 Bft) N-NE 22 0 min 0 W/m -0,4 C 3,9 C 23,4 km/h (4 Bft)
15/04/2012 23:00 6,6 C 60 % 1015,8 hPa 0,0 mm 10,1 km/h (2 Bft) N-NE 22 0 min 0 W/m -0,6 C 4,5 C 16,9 km/h (3 Bft)
15/04/2012 23:10 6,5 C 61 % 1015,8 hPa 0,0 mm 14,4 km/h (3 Bft) O 270 0 min 0 W/m -0,5 C 3,7 C 17,3 km/h (3 Bft)
15/04/2012 23:20 6,4 C 62 % 1016,0 hPa 0,0 mm 6,8 km/h (2 Bft) NO 315 0 min 0 W/m -0,3 C 5,1 C 15,8 km/h (3 Bft)
15/04/2012 23:30 6,4 C 63 % 1015,9 hPa 0,0 mm 10,1 km/h (2 Bft) N-NE 22 0 min 0 W/m -0,1 C 4,3 C 12,6 km/h (3 Bft)
15/04/2012 23:40 6,3 C 63 % 1016,1 hPa 0,0 mm 11,2 km/h (2 Bft) N-NE 22 0 min 0 W/m -0,2 C 4,0 C 20,5 km/h (4 Bft)
15/04/2012 23:50 6,3 C 64 % 1016,2 hPa 0,0 mm 7,6 km/h (2 Bft) NE 45 0 min 0 W/m 0,0 C 4,8 C 12,6 km/h (3 Bft)
_ Min-Heure 10:30 19:20 03:20 - 05:10 - - - - 23:00 09:40 04:00
Minimum _ 5,4 C 56 % 1004,0 hPa - 0,0 km/h (0 Bft) - - - - -0,6 C 2,6 C 0,0 km/h (0 Bft)
_ Max-Heure 14:10 08:00 23:50 07:00 19:40 - - 20:30 23:50 13:20 14:10 19:20
Maximum _ 10,8 C 88 % 1016,2 hPa 0,1 mm 23,0 km/h
N-NO (4 Bft)
- - 2 min 0 W/m 4,9 C 10,8 C 37,8 km/h
N (5 Bft)
Moyenne _ 7,5 C 73 % 1008,8 hPa #0,1 mm 8,7 km/h (2 Bft) N-NE - #2:40 h 0 W/m 2,8 C 6,3 C 13,3 km/h (3 Bft)
Saint Bonnet de Bellac- Haute Vienne - France